Year,Month,Day,Hour,Minute,Value (Times are PST for temperature in C)
2019,08,03,00,00,16.70
2019,08,03,00,01,16.80
2019,08,03,00,02,16.80
2019,08,03,00,03,16.80
2019,08,03,00,04,16.80
2019,08,03,00,05,16.70
2019,08,03,00,06,16.70
2019,08,03,00,07,16.70
2019,08,03,00,08,16.70
2019,08,03,00,09,16.70
2019,08,03,00,10,16.70
2019,08,03,00,11,16.70
2019,08,03,00,12,16.70
2019,08,03,00,13,16.80
2019,08,03,00,14,16.80
2019,08,03,00,15,16.80
2019,08,03,00,16,16.80
2019,08,03,00,17,16.80
2019,08,03,00,18,16.80
2019,08,03,00,19,16.80
2019,08,03,00,20,16.90
2019,08,03,00,21,16.90
2019,08,03,00,22,16.90
2019,08,03,00,23,16.90
2019,08,03,00,24,16.90
2019,08,03,00,25,16.90
2019,08,03,00,26,16.90
2019,08,03,00,27,17.00
2019,08,03,00,28,17.00
2019,08,03,00,29,17.00
2019,08,03,00,30,17.10
2019,08,03,00,31,17.10
2019,08,03,00,32,17.10
2019,08,03,00,33,17.10
2019,08,03,00,34,17.10
2019,08,03,00,35,17.10
2019,08,03,00,36,17.10
2019,08,03,00,37,17.10
2019,08,03,00,38,17.10
2019,08,03,00,39,17.10
2019,08,03,00,40,17.10
2019,08,03,00,41,17.10
2019,08,03,00,42,17.20
2019,08,03,00,43,17.20
2019,08,03,00,44,17.20
2019,08,03,00,45,17.30
2019,08,03,00,46,17.30
2019,08,03,00,47,17.30
2019,08,03,00,48,17.30
2019,08,03,00,49,17.30
2019,08,03,00,50,17.30
2019,08,03,00,51,17.30
2019,08,03,00,52,17.30
2019,08,03,00,53,17.30
2019,08,03,00,54,17.30
2019,08,03,00,55,17.30
2019,08,03,00,56,17.30
2019,08,03,00,57,17.30
2019,08,03,00,58,17.30
2019,08,03,00,59,17.30
2019,08,03,01,00,17.30
2019,08,03,01,01,17.30
2019,08,03,01,02,17.30
2019,08,03,01,03,17.20
2019,08,03,01,04,17.20
2019,08,03,01,05,17.20
2019,08,03,01,06,17.20
2019,08,03,01,07,17.20
2019,08,03,01,08,17.20
2019,08,03,01,09,17.20
2019,08,03,01,10,17.20
2019,08,03,01,11,17.20
2019,08,03,01,12,17.20
2019,08,03,01,13,17.10
2019,08,03,01,14,17.10
2019,08,03,01,15,17.10
2019,08,03,01,16,17.10
2019,08,03,01,17,17.10
2019,08,03,01,18,17.10
2019,08,03,01,19,17.10
2019,08,03,01,20,17.10
2019,08,03,01,21,17.10
2019,08,03,01,22,17.10
2019,08,03,01,23,17.10
2019,08,03,01,24,17.00
2019,08,03,01,25,17.00
2019,08,03,01,26,17.00
2019,08,03,01,27,16.90
2019,08,03,01,28,16.90
2019,08,03,01,29,16.90
2019,08,03,01,30,16.90
2019,08,03,01,31,16.90
2019,08,03,01,32,16.90
2019,08,03,01,33,16.90
2019,08,03,01,34,16.80
2019,08,03,01,35,16.80
2019,08,03,01,36,16.80
2019,08,03,01,37,16.80
2019,08,03,01,38,16.80
2019,08,03,01,39,16.80
2019,08,03,01,40,16.80
2019,08,03,01,41,16.80
2019,08,03,01,42,16.80
2019,08,03,01,43,16.80
2019,08,03,01,44,16.70
2019,08,03,01,45,16.70
2019,08,03,01,46,16.70
2019,08,03,01,47,16.70
2019,08,03,01,48,16.70
2019,08,03,01,49,16.60
2019,08,03,01,50,16.60
2019,08,03,01,51,16.60
2019,08,03,01,52,16.60
2019,08,03,01,53,16.60
2019,08,03,01,54,16.50
2019,08,03,01,55,16.50
2019,08,03,01,56,16.40
2019,08,03,01,57,16.40
2019,08,03,01,58,16.40
2019,08,03,01,59,16.40
2019,08,03,02,00,16.40
2019,08,03,02,01,16.40
2019,08,03,02,02,16.30
2019,08,03,02,03,16.30
2019,08,03,02,04,16.30
2019,08,03,02,05,16.20
2019,08,03,02,06,16.20
2019,08,03,02,07,16.10
2019,08,03,02,08,16.10
2019,08,03,02,09,16.10
2019,08,03,02,10,16.10
2019,08,03,02,11,16.00
2019,08,03,02,12,16.00
2019,08,03,02,13,16.00
2019,08,03,02,14,16.10
2019,08,03,02,15,16.00
2019,08,03,02,16,16.00
2019,08,03,02,17,16.00
2019,08,03,02,18,16.00
2019,08,03,02,19,16.00
2019,08,03,02,20,16.00
2019,08,03,02,21,16.00
2019,08,03,02,22,16.00
2019,08,03,02,23,16.00
2019,08,03,02,24,16.00
2019,08,03,02,25,16.00
2019,08,03,02,26,16.00
2019,08,03,02,27,16.00
2019,08,03,02,28,16.00
2019,08,03,02,29,16.00
2019,08,03,02,30,16.00
2019,08,03,02,31,16.00
2019,08,03,02,32,16.00
2019,08,03,02,33,16.00
2019,08,03,02,34,16.00
2019,08,03,02,35,15.90
2019,08,03,02,36,16.00
2019,08,03,02,37,16.00
2019,08,03,02,38,16.00
2019,08,03,02,39,16.00
2019,08,03,02,40,16.00
2019,08,03,02,41,16.00
2019,08,03,02,42,16.00
2019,08,03,02,43,16.00
2019,08,03,02,44,16.00
2019,08,03,02,45,16.00
2019,08,03,02,46,15.90
2019,08,03,02,47,15.90
2019,08,03,02,48,15.90
2019,08,03,02,49,15.90
2019,08,03,02,50,15.90
2019,08,03,02,51,15.90
2019,08,03,02,52,15.90
2019,08,03,02,53,15.80
2019,08,03,02,54,15.80
2019,08,03,02,55,15.80
2019,08,03,02,56,15.80
2019,08,03,02,57,15.80
2019,08,03,02,58,15.80
2019,08,03,02,59,15.70
2019,08,03,03,00,15.70
2019,08,03,03,01,15.70
2019,08,03,03,02,15.70
2019,08,03,03,03,15.70
2019,08,03,03,04,15.70
2019,08,03,03,05,15.70
2019,08,03,03,06,15.70
2019,08,03,03,07,15.60
2019,08,03,03,08,15.60
2019,08,03,03,09,15.60
2019,08,03,03,10,15.60
2019,08,03,03,11,15.60
2019,08,03,03,12,15.60
2019,08,03,03,13,15.60
2019,08,03,03,14,15.60
2019,08,03,03,15,15.60
2019,08,03,03,16,15.60
2019,08,03,03,17,15.60
2019,08,03,03,18,15.60
2019,08,03,03,19,15.60
2019,08,03,03,20,15.60
2019,08,03,03,21,15.60
2019,08,03,03,22,15.60
2019,08,03,03,23,15.60
2019,08,03,03,24,15.60
2019,08,03,03,25,15.60
2019,08,03,03,26,15.60
2019,08,03,03,27,15.60
2019,08,03,03,28,15.60
2019,08,03,03,29,15.60
2019,08,03,03,30,15.60
2019,08,03,03,31,15.60
2019,08,03,03,32,15.60
2019,08,03,03,33,15.60
2019,08,03,03,34,15.60
2019,08,03,03,35,15.60
2019,08,03,03,36,15.60
2019,08,03,03,37,15.60
2019,08,03,03,38,15.60
2019,08,03,03,39,15.60
2019,08,03,03,40,15.60
2019,08,03,03,41,15.60
2019,08,03,03,42,15.60
2019,08,03,03,43,15.60
2019,08,03,03,44,15.50
2019,08,03,03,45,15.50
2019,08,03,03,46,15.50
2019,08,03,03,47,15.50
2019,08,03,03,48,15.40
2019,08,03,03,49,15.40
2019,08,03,03,50,15.40
2019,08,03,03,51,15.40
2019,08,03,03,52,15.40
2019,08,03,03,53,15.40
2019,08,03,03,54,15.40
2019,08,03,03,55,15.40
2019,08,03,03,56,15.30
2019,08,03,03,57,15.30
2019,08,03,03,58,15.30
2019,08,03,03,59,15.30
2019,08,03,04,00,15.30
2019,08,03,04,01,15.30
2019,08,03,04,02,15.20
2019,08,03,04,03,15.20
2019,08,03,04,04,15.20
2019,08,03,04,05,15.20
2019,08,03,04,06,15.20
2019,08,03,04,07,15.20
2019,08,03,04,08,15.10
2019,08,03,04,09,15.10
2019,08,03,04,10,15.10
2019,08,03,04,11,15.10
2019,08,03,04,12,15.10
2019,08,03,04,13,15.10
2019,08,03,04,14,15.10
2019,08,03,04,15,15.10
2019,08,03,04,16,15.10
2019,08,03,04,17,15.10
2019,08,03,04,18,15.10
2019,08,03,04,19,15.00
2019,08,03,04,20,15.00
2019,08,03,04,21,15.00
2019,08,03,04,22,15.00
2019,08,03,04,23,15.00
2019,08,03,04,24,15.00
2019,08,03,04,25,15.00
2019,08,03,04,26,15.10
2019,08,03,04,27,15.00
2019,08,03,04,28,15.00
2019,08,03,04,29,15.00
2019,08,03,04,30,15.00
2019,08,03,04,31,15.00
2019,08,03,04,32,15.00
2019,08,03,04,33,15.00
2019,08,03,04,34,15.00
2019,08,03,04,35,15.00
2019,08,03,04,36,15.00
2019,08,03,04,37,14.90
2019,08,03,04,38,14.90
2019,08,03,04,39,14.90
2019,08,03,04,40,14.90
2019,08,03,04,41,14.90
2019,08,03,04,42,14.90
2019,08,03,04,43,14.90
2019,08,03,04,44,14.90
2019,08,03,04,45,14.80
2019,08,03,04,46,14.80
2019,08,03,04,47,14.80
2019,08,03,04,48,14.80
2019,08,03,04,49,14.80
2019,08,03,04,50,14.80
2019,08,03,04,51,14.70
2019,08,03,04,52,14.70
2019,08,03,04,53,14.70
2019,08,03,04,54,14.70
2019,08,03,04,55,14.70
2019,08,03,04,56,14.70
2019,08,03,04,57,14.70
2019,08,03,04,58,14.70
2019,08,03,04,59,14.70
2019,08,03,05,00,14.70
2019,08,03,05,01,14.70
2019,08,03,05,02,14.60
2019,08,03,05,03,14.60
2019,08,03,05,04,14.60
2019,08,03,05,05,14.60
2019,08,03,05,06,14.60
2019,08,03,05,07,14.60
2019,08,03,05,08,14.60
2019,08,03,05,09,14.60
2019,08,03,05,10,14.60
2019,08,03,05,11,14.60
2019,08,03,05,12,14.60
2019,08,03,05,13,14.60
2019,08,03,05,14,14.60
2019,08,03,05,15,14.60
2019,08,03,05,16,14.60
2019,08,03,05,17,14.60
2019,08,03,05,18,14.60
2019,08,03,05,19,14.60
2019,08,03,05,20,14.70
2019,08,03,05,21,14.60
2019,08,03,05,22,14.60
2019,08,03,05,23,14.70
2019,08,03,05,24,14.70
2019,08,03,05,25,14.70
2019,08,03,05,26,14.70
2019,08,03,05,27,14.70
2019,08,03,05,28,14.70
2019,08,03,05,29,14.70
2019,08,03,05,30,14.70
2019,08,03,05,31,14.70
2019,08,03,05,32,14.70
2019,08,03,05,33,14.70
2019,08,03,05,34,14.70
2019,08,03,05,35,14.70
2019,08,03,05,36,14.70
2019,08,03,05,37,14.70
2019,08,03,05,38,14.70
2019,08,03,05,39,14.70
2019,08,03,05,40,14.60
2019,08,03,05,41,14.60
2019,08,03,05,42,14.60
2019,08,03,05,43,14.60
2019,08,03,05,44,14.60
2019,08,03,05,45,14.60
2019,08,03,05,46,14.60
2019,08,03,05,47,14.60
2019,08,03,05,48,14.60
2019,08,03,05,49,14.60
2019,08,03,05,50,14.60
2019,08,03,05,51,14.60
2019,08,03,05,52,14.60
2019,08,03,05,53,14.60
2019,08,03,05,54,14.60
2019,08,03,05,55,14.70
2019,08,03,05,56,14.80
2019,08,03,05,57,14.80
2019,08,03,05,58,14.80
2019,08,03,05,59,14.90
2019,08,03,06,00,14.90
2019,08,03,06,01,14.90
2019,08,03,06,02,14.90
2019,08,03,06,03,14.90
2019,08,03,06,04,14.90
2019,08,03,06,05,14.90
2019,08,03,06,06,14.90
2019,08,03,06,07,14.90
2019,08,03,06,08,14.90
2019,08,03,06,09,14.90
2019,08,03,06,10,14.90
2019,08,03,06,11,14.90
2019,08,03,06,12,14.90
2019,08,03,06,13,14.90
2019,08,03,06,14,14.90
2019,08,03,06,15,14.90
2019,08,03,06,16,14.90
2019,08,03,06,17,14.90
2019,08,03,06,18,14.90
2019,08,03,06,19,14.90
2019,08,03,06,20,14.90
2019,08,03,06,21,14.90
2019,08,03,06,22,14.90
2019,08,03,06,23,14.90
2019,08,03,06,24,14.90
2019,08,03,06,25,14.90
2019,08,03,06,26,14.90
2019,08,03,06,27,14.90
2019,08,03,06,28,14.90
2019,08,03,06,29,15.00
2019,08,03,06,30,15.00
2019,08,03,06,31,15.00
2019,08,03,06,32,15.10
2019,08,03,06,33,15.10
2019,08,03,06,34,15.10
2019,08,03,06,35,15.10
2019,08,03,06,36,15.10
2019,08,03,06,37,15.20
2019,08,03,06,38,15.20
2019,08,03,06,39,15.20
2019,08,03,06,40,15.20
2019,08,03,06,41,15.20
2019,08,03,06,42,15.20
2019,08,03,06,43,15.30
2019,08,03,06,44,15.30
2019,08,03,06,45,15.30
2019,08,03,06,46,15.30
2019,08,03,06,47,15.30
2019,08,03,06,48,15.30
2019,08,03,06,49,15.30
2019,08,03,06,50,15.40
2019,08,03,06,51,15.40
2019,08,03,06,52,15.40
2019,08,03,06,53,15.40
2019,08,03,06,54,15.40
2019,08,03,06,55,15.50
2019,08,03,06,56,15.50
2019,08,03,06,57,15.50
2019,08,03,06,58,15.60
2019,08,03,06,59,15.60
2019,08,03,07,00,15.70
2019,08,03,07,01,15.70
2019,08,03,07,02,15.70
2019,08,03,07,03,15.80
2019,08,03,07,04,15.80
2019,08,03,07,05,15.80
2019,08,03,07,06,15.90
2019,08,03,07,07,15.90
2019,08,03,07,08,15.90
2019,08,03,07,09,16.00
2019,08,03,07,10,16.00
2019,08,03,07,11,16.10
2019,08,03,07,12,16.10
2019,08,03,07,13,16.10
2019,08,03,07,14,16.20
2019,08,03,07,15,16.20
2019,08,03,07,16,16.20
2019,08,03,07,17,16.30
2019,08,03,07,18,16.30
2019,08,03,07,19,16.30
2019,08,03,07,20,16.30
2019,08,03,07,21,16.40
2019,08,03,07,22,16.40
2019,08,03,07,23,16.40
2019,08,03,07,24,16.50
2019,08,03,07,25,16.50
2019,08,03,07,26,16.60
2019,08,03,07,27,16.60
2019,08,03,07,28,16.60
2019,08,03,07,29,16.70
2019,08,03,07,30,16.70
2019,08,03,07,31,16.80
2019,08,03,07,32,16.80
2019,08,03,07,33,16.80
2019,08,03,07,34,16.90
2019,08,03,07,35,16.90
2019,08,03,07,36,16.90
2019,08,03,07,37,17.00
2019,08,03,07,38,17.00
2019,08,03,07,39,17.10
2019,08,03,07,40,17.10
2019,08,03,07,41,17.10
2019,08,03,07,42,17.20
2019,08,03,07,43,17.20
2019,08,03,07,44,17.20
2019,08,03,07,45,17.20
2019,08,03,07,46,17.30
2019,08,03,07,47,17.30
2019,08,03,07,48,17.30
2019,08,03,07,49,17.30
2019,08,03,07,50,17.40
2019,08,03,07,51,17.40
2019,08,03,07,52,17.40
2019,08,03,07,53,17.40
2019,08,03,07,54,17.40
2019,08,03,07,55,17.50
2019,08,03,07,56,17.50
2019,08,03,07,57,17.50
2019,08,03,07,58,17.60
2019,08,03,07,59,17.60
2019,08,03,08,00,17.60
2019,08,03,08,01,17.60
2019,08,03,08,02,17.60
2019,08,03,08,03,17.60
2019,08,03,08,04,17.60
2019,08,03,08,05,17.70
2019,08,03,08,06,17.70
2019,08,03,08,07,17.70
2019,08,03,08,08,17.70
2019,08,03,08,09,17.80
2019,08,03,08,10,17.80
2019,08,03,08,11,17.80
2019,08,03,08,12,17.80
2019,08,03,08,13,17.80
2019,08,03,08,14,17.90
2019,08,03,08,15,17.90
2019,08,03,08,16,17.90
2019,08,03,08,17,17.90
2019,08,03,08,18,17.90
2019,08,03,08,19,17.90
2019,08,03,08,20,17.90
2019,08,03,08,21,17.90
2019,08,03,08,22,17.90
2019,08,03,08,23,17.90
2019,08,03,08,24,17.90
2019,08,03,08,25,17.90
2019,08,03,08,26,18.00
2019,08,03,08,27,18.00
2019,08,03,08,28,18.00
2019,08,03,08,29,18.10
2019,08,03,08,30,18.00
2019,08,03,08,31,18.00
2019,08,03,08,32,17.90
2019,08,03,08,33,17.90
2019,08,03,08,34,17.90
2019,08,03,08,35,17.90
2019,08,03,08,36,17.90
2019,08,03,08,37,17.90
2019,08,03,08,38,17.90
2019,08,03,08,39,17.90
2019,08,03,08,40,17.90
2019,08,03,08,41,17.90
2019,08,03,08,42,18.00
2019,08,03,08,43,18.00
2019,08,03,08,44,18.10
2019,08,03,08,45,18.10
2019,08,03,08,46,18.10
2019,08,03,08,47,18.10
2019,08,03,08,48,18.10
2019,08,03,08,49,18.10
2019,08,03,08,50,18.20
2019,08,03,08,51,18.20
2019,08,03,08,52,18.20
2019,08,03,08,53,18.20
2019,08,03,08,54,18.20
2019,08,03,08,55,18.20
2019,08,03,08,56,18.20
2019,08,03,08,57,18.20
2019,08,03,08,58,18.20
2019,08,03,08,59,18.20
2019,08,03,09,00,18.20
2019,08,03,09,01,18.30
2019,08,03,09,02,18.40
2019,08,03,09,03,18.40
2019,08,03,09,04,18.40
2019,08,03,09,05,18.40
2019,08,03,09,06,18.40
2019,08,03,09,07,18.40
2019,08,03,09,08,18.40
2019,08,03,09,09,18.40
2019,08,03,09,10,18.40
2019,08,03,09,11,18.40
2019,08,03,09,12,18.40
2019,08,03,09,13,18.40
2019,08,03,09,14,18.50
2019,08,03,09,15,18.50
2019,08,03,09,16,18.50
2019,08,03,09,17,18.50
2019,08,03,09,18,18.60
2019,08,03,09,19,18.60
2019,08,03,09,20,18.70
2019,08,03,09,21,18.70
2019,08,03,09,22,18.70
2019,08,03,09,23,18.70
2019,08,03,09,24,18.80
2019,08,03,09,25,18.80
2019,08,03,09,26,18.80
2019,08,03,09,27,18.80
2019,08,03,09,28,18.90
2019,08,03,09,29,19.00
2019,08,03,09,30,19.00
2019,08,03,09,31,19.10
2019,08,03,09,32,19.10
2019,08,03,09,33,19.10
2019,08,03,09,34,19.00
2019,08,03,09,35,19.00
2019,08,03,09,36,18.90
2019,08,03,09,37,18.90
2019,08,03,09,38,18.90
2019,08,03,09,39,18.90
2019,08,03,09,40,18.90
2019,08,03,09,41,19.00
2019,08,03,09,42,19.10
2019,08,03,09,43,19.10
2019,08,03,09,44,19.10
2019,08,03,09,45,19.20
2019,08,03,09,46,19.20
2019,08,03,09,47,19.30
2019,08,03,09,48,19.30
2019,08,03,09,49,19.40
2019,08,03,09,50,19.20
2019,08,03,09,51,19.20
2019,08,03,09,52,19.10
2019,08,03,09,53,19.00
2019,08,03,09,54,19.00
2019,08,03,09,55,18.90
2019,08,03,09,56,18.80
2019,08,03,09,57,18.80
2019,08,03,09,58,18.80
2019,08,03,09,59,18.80
2019,08,03,10,00,18.80
2019,08,03,10,01,18.80
2019,08,03,10,02,18.70
2019,08,03,10,03,18.70
2019,08,03,10,04,18.70
2019,08,03,10,05,18.70
2019,08,03,10,06,18.70
2019,08,03,10,07,18.70
2019,08,03,10,08,18.70
2019,08,03,10,09,18.60
2019,08,03,10,10,18.60
2019,08,03,10,11,18.60
2019,08,03,10,12,18.60
2019,08,03,10,13,18.60
2019,08,03,10,14,18.70
2019,08,03,10,15,18.60
2019,08,03,10,16,18.60
2019,08,03,10,17,18.60
2019,08,03,10,18,18.50
2019,08,03,10,19,18.50
2019,08,03,10,20,18.50
2019,08,03,10,21,18.50
2019,08,03,10,22,18.60
2019,08,03,10,23,18.60
2019,08,03,10,24,18.70
2019,08,03,10,25,18.70
2019,08,03,10,26,18.70
2019,08,03,10,27,18.70
2019,08,03,10,28,18.70
2019,08,03,10,29,18.60
2019,08,03,10,30,18.50
2019,08,03,10,31,18.50
2019,08,03,10,32,18.60
2019,08,03,10,33,18.50
2019,08,03,10,34,18.60
2019,08,03,10,35,18.50
2019,08,03,10,36,18.50
2019,08,03,10,37,18.50
2019,08,03,10,38,18.50
2019,08,03,10,39,18.50
2019,08,03,10,40,18.50
2019,08,03,10,41,18.40
2019,08,03,10,42,18.40
2019,08,03,10,43,18.30
2019,08,03,10,44,18.30
2019,08,03,10,45,18.40
2019,08,03,10,46,18.40
2019,08,03,10,47,18.40
2019,08,03,10,48,18.40
2019,08,03,10,49,18.30
2019,08,03,10,50,18.30
2019,08,03,10,51,18.30
2019,08,03,10,52,18.30
2019,08,03,10,53,18.30
2019,08,03,10,54,18.40
2019,08,03,10,55,18.40
2019,08,03,10,56,18.50
2019,08,03,10,57,18.50
2019,08,03,10,58,18.50
2019,08,03,10,59,18.50
2019,08,03,11,00,18.50
2019,08,03,11,01,18.60
2019,08,03,11,02,18.50
2019,08,03,11,03,18.60
2019,08,03,11,04,18.60
2019,08,03,11,05,18.60
2019,08,03,11,06,18.60
2019,08,03,11,07,18.60
2019,08,03,11,08,18.70
2019,08,03,11,09,18.70
2019,08,03,11,10,18.80
2019,08,03,11,11,18.80
2019,08,03,11,12,18.80
2019,08,03,11,13,18.80
2019,08,03,11,14,18.80
2019,08,03,11,15,18.80
2019,08,03,11,16,18.80
2019,08,03,11,17,18.80
2019,08,03,11,18,18.90
2019,08,03,11,19,18.90
2019,08,03,11,20,19.00
2019,08,03,11,21,18.90
2019,08,03,11,22,18.90
2019,08,03,11,23,18.90
2019,08,03,11,24,18.80
2019,08,03,11,25,18.80
2019,08,03,11,26,18.80
2019,08,03,11,27,18.70
2019,08,03,11,28,18.60
2019,08,03,11,29,18.60
2019,08,03,11,30,18.60
2019,08,03,11,31,18.60
2019,08,03,11,32,18.60
2019,08,03,11,33,18.60
2019,08,03,11,34,18.60
2019,08,03,11,35,18.60
2019,08,03,11,36,18.60
2019,08,03,11,37,18.60
2019,08,03,11,38,18.70
2019,08,03,11,39,18.80
2019,08,03,11,40,18.80
2019,08,03,11,41,18.90
2019,08,03,11,42,19.00
2019,08,03,11,43,19.10
2019,08,03,11,44,19.10
2019,08,03,11,45,19.30
2019,08,03,11,46,19.40
2019,08,03,11,47,19.50
2019,08,03,11,48,19.60
2019,08,03,11,49,19.70
2019,08,03,11,50,19.60
2019,08,03,11,51,19.60
2019,08,03,11,52,19.70
2019,08,03,11,53,19.60
2019,08,03,11,54,19.60
2019,08,03,11,55,19.60
2019,08,03,11,56,19.60
2019,08,03,11,57,19.60
2019,08,03,11,58,19.50
2019,08,03,11,59,19.50
2019,08,03,12,00,19.50
2019,08,03,12,01,19.50
2019,08,03,12,02,19.40
2019,08,03,12,03,19.40
2019,08,03,12,04,19.40
2019,08,03,12,05,19.40
2019,08,03,12,06,19.40
2019,08,03,12,07,19.40
2019,08,03,12,08,19.40
2019,08,03,12,09,19.50
2019,08,03,12,10,19.60
2019,08,03,12,11,19.60
2019,08,03,12,12,19.60
2019,08,03,12,13,19.50
2019,08,03,12,14,19.70
2019,08,03,12,15,19.80
2019,08,03,12,16,19.80
2019,08,03,12,17,19.90
2019,08,03,12,18,19.90
2019,08,03,12,19,20.00
2019,08,03,12,20,20.10
2019,08,03,12,21,20.10
2019,08,03,12,22,20.20
2019,08,03,12,23,20.20
2019,08,03,12,24,20.30
2019,08,03,12,25,20.30
2019,08,03,12,26,20.20
2019,08,03,12,27,20.20
2019,08,03,12,28,20.20
2019,08,03,12,29,20.30
2019,08,03,12,30,20.40
2019,08,03,12,31,20.40
2019,08,03,12,32,20.40
2019,08,03,12,33,20.50
2019,08,03,12,34,20.60
2019,08,03,12,35,20.70
2019,08,03,12,36,20.80
2019,08,03,12,37,20.90
2019,08,03,12,38,20.90
2019,08,03,12,39,21.00
2019,08,03,12,40,21.00
2019,08,03,12,41,21.00
2019,08,03,12,42,21.10
2019,08,03,12,43,21.10
2019,08,03,12,44,21.20
2019,08,03,12,45,21.20
2019,08,03,12,46,21.10
2019,08,03,12,47,21.20
2019,08,03,12,48,21.20
2019,08,03,12,49,21.20
2019,08,03,12,50,21.20
2019,08,03,12,51,21.10
2019,08,03,12,52,21.00
2019,08,03,12,53,21.00
2019,08,03,12,54,21.10
2019,08,03,12,55,21.10
2019,08,03,12,56,21.00
2019,08,03,12,57,20.90
2019,08,03,12,58,20.80
2019,08,03,12,59,20.80
2019,08,03,13,00,20.90
2019,08,03,13,01,20.90
2019,08,03,13,02,20.90
2019,08,03,13,03,20.80
2019,08,03,13,04,20.70
2019,08,03,13,05,20.60
2019,08,03,13,06,20.60
2019,08,03,13,07,20.60
2019,08,03,13,08,20.50
2019,08,03,13,09,20.50
2019,08,03,13,10,20.60
2019,08,03,13,11,20.80
2019,08,03,13,12,20.80
2019,08,03,13,13,20.80
2019,08,03,13,14,20.70
2019,08,03,13,15,20.70
2019,08,03,13,16,20.70
2019,08,03,13,17,20.70
2019,08,03,13,18,20.70
2019,08,03,13,19,20.80
2019,08,03,13,20,20.90
2019,08,03,13,21,20.90
2019,08,03,13,22,20.90
2019,08,03,13,23,20.90
2019,08,03,13,24,20.80
2019,08,03,13,25,20.80
2019,08,03,13,26,20.80
2019,08,03,13,27,20.70
2019,08,03,13,28,20.60
2019,08,03,13,29,20.60
2019,08,03,13,30,20.60
2019,08,03,13,31,20.70
2019,08,03,13,32,20.60
2019,08,03,13,33,20.60
2019,08,03,13,34,20.60
2019,08,03,13,35,20.60
2019,08,03,13,36,20.60
2019,08,03,13,37,20.60
2019,08,03,13,38,20.70
2019,08,03,13,39,20.80
2019,08,03,13,40,20.90
2019,08,03,13,41,21.00
2019,08,03,13,42,21.10
2019,08,03,13,43,21.20
2019,08,03,13,44,21.30
2019,08,03,13,45,21.50
2019,08,03,13,46,21.50
2019,08,03,13,47,21.60
2019,08,03,13,48,21.50
2019,08,03,13,49,21.40
2019,08,03,13,50,21.40
2019,08,03,13,51,21.40
2019,08,03,13,52,21.50
2019,08,03,13,53,21.50
2019,08,03,13,54,21.40
2019,08,03,13,55,21.40
2019,08,03,13,56,21.30
2019,08,03,13,57,21.30
2019,08,03,13,58,21.30
2019,08,03,13,59,21.40
2019,08,03,14,00,21.50
2019,08,03,14,01,21.50
2019,08,03,14,02,21.60
2019,08,03,14,03,21.80
2019,08,03,14,04,21.80
2019,08,03,14,05,21.80
2019,08,03,14,06,21.70
2019,08,03,14,07,21.70
2019,08,03,14,08,21.70
2019,08,03,14,09,21.70
2019,08,03,14,10,21.80
2019,08,03,14,11,21.90
2019,08,03,14,12,21.90
2019,08,03,14,13,22.00
2019,08,03,14,14,22.00
2019,08,03,14,15,22.10
2019,08,03,14,16,22.10
2019,08,03,14,17,22.00
2019,08,03,14,18,22.00
2019,08,03,14,19,21.90
2019,08,03,14,20,21.80
2019,08,03,14,21,21.80
2019,08,03,14,22,21.80
2019,08,03,14,23,21.80
2019,08,03,14,24,21.80
2019,08,03,14,25,21.80
2019,08,03,14,26,21.90
2019,08,03,14,27,21.90
2019,08,03,14,28,22.00
2019,08,03,14,29,21.90
2019,08,03,14,30,21.90
2019,08,03,14,31,21.90
2019,08,03,14,32,22.00
2019,08,03,14,33,22.10
2019,08,03,14,34,22.10
2019,08,03,14,35,22.20
2019,08,03,14,36,22.30
2019,08,03,14,37,22.30
2019,08,03,14,38,22.30
2019,08,03,14,39,22.30
2019,08,03,14,40,22.40
2019,08,03,14,41,22.50
2019,08,03,14,42,22.70
2019,08,03,14,43,22.90
2019,08,03,14,44,22.90
2019,08,03,14,45,22.90
2019,08,03,14,46,22.80
2019,08,03,14,47,22.80
2019,08,03,14,48,22.80
2019,08,03,14,49,22.80
2019,08,03,14,50,22.80
2019,08,03,14,51,22.80
2019,08,03,14,52,22.70
2019,08,03,14,53,22.60
2019,08,03,14,54,22.60
2019,08,03,14,55,22.60
2019,08,03,14,56,22.70
2019,08,03,14,57,22.80
2019,08,03,14,58,22.80
2019,08,03,14,59,22.80
2019,08,03,15,00,22.70
2019,08,03,15,01,22.70
2019,08,03,15,02,22.70
2019,08,03,15,03,22.70
2019,08,03,15,04,22.70
2019,08,03,15,05,22.80
2019,08,03,15,06,22.80
2019,08,03,15,07,22.80
2019,08,03,15,08,22.90
2019,08,03,15,09,22.90
2019,08,03,15,10,22.90
2019,08,03,15,11,22.90
2019,08,03,15,12,22.90
2019,08,03,15,13,23.00
2019,08,03,15,14,23.10
2019,08,03,15,15,23.10
2019,08,03,15,16,23.10
2019,08,03,15,17,23.20
2019,08,03,15,18,23.20
2019,08,03,15,19,23.30
2019,08,03,15,20,23.40
2019,08,03,15,21,23.40
2019,08,03,15,22,23.40
2019,08,03,15,23,23.40
2019,08,03,15,24,23.40
2019,08,03,15,25,23.40
2019,08,03,15,26,23.40
2019,08,03,15,27,23.40
2019,08,03,15,28,23.50
2019,08,03,15,29,23.50
2019,08,03,15,30,23.50
2019,08,03,15,31,23.50
2019,08,03,15,32,23.40
2019,08,03,15,33,23.40
2019,08,03,15,34,23.30
2019,08,03,15,35,23.30
2019,08,03,15,36,23.30
2019,08,03,15,37,23.30
2019,08,03,15,38,23.30
2019,08,03,15,39,23.40
2019,08,03,15,40,23.60
2019,08,03,15,41,23.80
2019,08,03,15,42,23.90
2019,08,03,15,43,23.90
2019,08,03,15,44,23.90
2019,08,03,15,45,23.80
2019,08,03,15,46,23.80
2019,08,03,15,47,23.70
2019,08,03,15,48,23.70
2019,08,03,15,49,23.80
2019,08,03,15,50,23.80
2019,08,03,15,51,23.80
2019,08,03,15,52,23.90
2019,08,03,15,53,23.90
2019,08,03,15,54,23.80
2019,08,03,15,55,23.80
2019,08,03,15,56,23.80
2019,08,03,15,57,23.80
2019,08,03,15,58,23.80
2019,08,03,15,59,23.90
2019,08,03,16,00,24.00
2019,08,03,16,01,24.10
2019,08,03,16,02,24.20
2019,08,03,16,03,24.30
2019,08,03,16,04,24.30
2019,08,03,16,05,24.30
2019,08,03,16,06,24.30
2019,08,03,16,07,24.30
2019,08,03,16,08,24.20
2019,08,03,16,09,24.20
2019,08,03,16,10,24.20
2019,08,03,16,11,24.20
2019,08,03,16,12,24.20
2019,08,03,16,13,24.30
2019,08,03,16,14,24.30
2019,08,03,16,15,24.30
2019,08,03,16,16,24.30
2019,08,03,16,17,24.30
2019,08,03,16,18,24.30
2019,08,03,16,19,24.30
2019,08,03,16,20,24.20
2019,08,03,16,21,24.10
2019,08,03,16,22,24.20
2019,08,03,16,23,24.20
2019,08,03,16,24,24.20
2019,08,03,16,25,24.20
2019,08,03,16,26,24.10
2019,08,03,16,27,24.10
2019,08,03,16,28,24.20
2019,08,03,16,29,24.20
2019,08,03,16,30,24.30
2019,08,03,16,31,24.40
2019,08,03,16,32,24.40
2019,08,03,16,33,24.50
2019,08,03,16,34,24.60
2019,08,03,16,35,24.70
2019,08,03,16,36,24.60
2019,08,03,16,37,24.40
2019,08,03,16,38,24.30
2019,08,03,16,39,24.20
2019,08,03,16,40,24.00
2019,08,03,16,41,24.00
2019,08,03,16,42,23.90
2019,08,03,16,43,23.90
2019,08,03,16,44,24.00
2019,08,03,16,45,24.00
2019,08,03,16,46,24.10
2019,08,03,16,47,24.10
2019,08,03,16,48,24.00
2019,08,03,16,49,24.10
2019,08,03,16,50,24.10
2019,08,03,16,51,24.20
2019,08,03,16,52,24.20
2019,08,03,16,53,24.30
2019,08,03,16,54,24.40
2019,08,03,16,55,24.40
2019,08,03,16,56,24.50
2019,08,03,16,57,24.60
2019,08,03,16,58,24.70
2019,08,03,16,59,24.80
2019,08,03,17,00,24.80
2019,08,03,17,01,24.80
2019,08,03,17,02,24.70
2019,08,03,17,03,24.60
2019,08,03,17,04,24.60
2019,08,03,17,05,24.50
2019,08,03,17,06,24.40
2019,08,03,17,07,24.30
2019,08,03,17,08,24.30
2019,08,03,17,09,24.40
2019,08,03,17,10,24.50
2019,08,03,17,11,24.50
2019,08,03,17,12,24.60
2019,08,03,17,13,24.60
2019,08,03,17,14,24.60
2019,08,03,17,15,24.60
2019,08,03,17,16,24.70
2019,08,03,17,17,24.70
2019,08,03,17,18,24.70
2019,08,03,17,19,24.80